Location: ????????
(41.2031°N, 22.5756°E)
Time: 06:15:40
(UTC+00:00)

Cosmos 1812 - Pass Details

Date: 01 December 2020
Orbit: 517 x 520 km, 82.5° (Epoch: 20 January)

Event Time Altitude Azimuth Distance (km) Brightness Sun altitude
Rises 15:55:05 0° 151° (SSE) 2,626 6.2 -10.0°
Reaches altitude 10° 15:57:40 10° 133° (SE) 1,744 5.1 -10.4°
Maximum altitude 16:00:22 19° 88° (E) 1,296 4.1 -10.9°
Enters shadow 16:01:35 16° 64° (ENE) 1,402 4.2 -11.1°
